situs togel terpercaya togel online terbesar
  
Agen bola online
Pkv Games
togel online terbaik
Agen Togel Online Terbaik
Situs Togel Terpercaya
Situs Togel Terpercaya
Bandar Judi Online Paling Oke
Result Keluaran SGP
Pengeluaran HK
CAMBODIAHKMACAUSGPSYDNEYTAIWAN

agen togel online
Agen Togel Terbaik
Togel Online Terbaik
agenqqqq
Agen Bola
Casino Online Terpercaya

DATA TOGEL BARCELONA LENGKAP


Hasil Data Angka Keluaran Togel BARCELONA Hari Ini dan prediksi togel BARCELONA hari ini
Semua hasil keluaran togel BARCELONA hari ini Minggu 01 Agustus 2021 live Result
DATA TOGEL BARCELONA PENGELUARAN ANGKA HARI INI
Jika data pengeluaran togel BARCELONA tidak muncul silahkan KLIK DISINI

TANGGAL PERIODE RESULT
2021-08-01 BRC-1114 3 1 0 7
2021-07-31 BRC-1113 1 3 1 9
2021-07-30 BRC-1112 0 4 0 2
2021-07-29 BRC-1111 7 8 2 5
2021-07-28 BRC-1110 9 9 8 4
2021-07-27 BRC-1109 9 8 4 8
2021-07-26 BRC-1108 0 0 9 7
2021-07-25 BRC-1107 0 3 2 3
2021-07-24 BRC-1106 9 5 6 3
2021-07-23 BRC-1105 1 0 1 9
2021-07-22 BRC-1104 7 7 5 8
2021-07-21 BRC-1103 5 4 6 2
2021-07-20 BRC-1102 8 4 1 8
2021-07-19 BRC-1101 4 0 6 1
2021-07-18 BRC-1100 5 2 6 0
2021-07-17 BRC-1099 2 8 7 9
2021-07-16 BRC-1098 1 2 4 9
2021-07-15 BRC-1097 3 8 1 2
2021-07-14 BRC-1096 8 4 8 7
2021-07-13 BRC-1095 6 9 9 5
2021-07-12 BRC-1094 3 2 3 0
2021-07-11 BRC-1093 0 5 8 4
2021-07-10 BRC-1092 2 0 5 8
2021-07-09 BRC-1091 5 6 9 0
2021-07-08 BRC-1090 0 2 7 3
2021-07-07 BRC-1089 3 1 0 6
2021-07-06 BRC-1088 0 1 4 7
2021-07-05 BRC-1087 2 9 6 1
2021-07-04 BRC-1086 2 3 8 4
2021-07-03 BRC-1085 0 3 0 2
2021-07-02 BRC-1084 4 7 7 1
2021-07-01 BRC-1083 1 8 6 7
2021-06-30 BRC-1082 3 6 3 8
2021-06-29 BRC-1081 7 0 7 3
2021-06-28 BRC-1080 0 2 1 8
2021-06-27 BRC-1079 0 6 3 2
2021-06-26 BRC-1078 6 7 5 2
2021-06-25 BRC-1077 6 2 6 5
2021-06-24 BRC-1076 8 1 5 5
2021-06-23 BRC-1075 4 0 1 6
2021-06-22 BRC-1074 4 8 7 8
2021-06-21 BRC-1073 8 7 5 6
2021-06-20 BRC-1072 7 0 4 4
2021-06-19 BRC-1071 7 6 0 2
2021-06-18 BRC-1070 7 4 0 6
2021-06-17 BRC-1069 4 1 7 5
2021-06-16 BRC-1068 9 6 5 8
2021-06-15 BRC-1067 4 3 1 4
2021-06-14 BRC-1066 5 5 3 8
2021-06-13 BRC-1065 8 9 9 4

Teka Teki Togel Hkngkong Mlm IniAngka Main 2d Sgp Hari IniPasar Taruhan BolaPrediksi Togel OhioTogel Sidney Hari Ini LiveSkor Live BolaKeluaran Togel Hongkong OnlenHasil Togel IndonesiaAngka Main Togel Hari Ini SabtuPrediksi Togel Hk Malm IniPrediksi Mbah Dukun Kluaran Togel Kl Nanti MalamPrediksi Singapura BesokEmpat Angka Keluar Hari IniTogel Hongkong 2019 Hari Ini Live ResultPrediksi Togel Hongkong TanggalhtmlDunia303 TogelPrediksi Togel Sg Hk By Mbah GondrongKluaran Togel HongkongPrediksi Hk Dewa TogelPasaran Togel SumoTempat Taruhan Bola
^Top | Sitemap | Tools | Bandar Judi
close

Togel Singapore
Hoki365

SINGAPURA PCSO BULLSEYE
HONGKONG SYDNEY MAGNUM4D
MACAU CAMBODIA NEWZEALAND
KIM SDSB MANILA
LAOS TAIPEI KOREA

MENU PARTNER

Togel Jitu | Hasil Pengeluaran Togel | Empu Togel | Results Togel | Romo Togel | Togel Hari Ini | Result Jitu
close
anekaqq Agen judi bola
close
SITUS BANDARQ TERPERCAYA Pengeluaran SGP